TimeEST,TemperatureF,Dew PointF,Humidity,Sea Level PressureIn,VisibilityMPH,Wind Direction,Wind SpeedMPH,Gust SpeedMPH,PrecipitationIn,Events,Conditions,WindDirDegrees,DateUTC
12:53 AM,45.0,35.1,68,29.21,10.0,South,10.4,-,N/A,,Clear,190,2014-01-12 05:53:00
1:53 AM,44.1,32.0,63,29.25,10.0,Variable,4.6,23.0,N/A,,Clear,0,2014-01-12 06:53:00
2:53 AM,42.1,32.0,67,29.29,10.0,SSW,13.8,21.9,N/A,,Overcast,210,2014-01-12 07:53:00
3:53 AM,41.0,32.0,70,29.34,10.0,SW,3.5,-,N/A,,Overcast,220,2014-01-12 08:53:00
4:53 AM,39.9,30.0,68,29.37,10.0,Variable,5.8,-,N/A,,Overcast,0,2014-01-12 09:53:00
5:53 AM,39.0,30.0,70,29.38,10.0,Calm,Calm,-,0.00,,Overcast,0,2014-01-12 10:53:00
6:53 AM,39.0,30.0,70,29.44,10.0,Variable,6.9,-,N/A,,Overcast,0,2014-01-12 11:53:00
7:53 AM,37.9,30.0,73,29.49,10.0,SW,5.8,-,N/A,,Overcast,220,2014-01-12 12:53:00
8:53 AM,39.0,28.9,67,29.54,10.0,Variable,4.6,-,N/A,,Overcast,0,2014-01-12 13:53:00
9:53 AM,39.9,28.0,63,29.57,10.0,West,8.1,-,N/A,,Overcast,280,2014-01-12 14:53:00
10:53 AM,39.9,28.9,65,29.60,10.0,Variable,3.5,-,N/A,,Overcast,0,2014-01-12 15:53:00
11:53 AM,39.9,28.0,63,29.60,10.0,West,8.1,19.6,N/A,,Overcast,270,2014-01-12 16:53:00
12:53 PM,39.9,27.0,60,29.61,10.0,West,9.2,18.4,N/A,,Overcast,260,2014-01-12 17:53:00
1:53 PM,39.9,26.1,58,29.63,10.0,WSW,10.4,-,N/A,,Overcast,250,2014-01-12 18:53:00
2:53 PM,39.0,24.1,55,29.68,10.0,West,11.5,20.7,N/A,,Overcast,280,2014-01-12 19:53:00
3:53 PM,39.0,24.1,55,29.73,10.0,West,13.8,24.2,N/A,,Overcast,260,2014-01-12 20:53:00
4:53 PM,37.9,23.0,55,29.78,10.0,West,8.1,24.2,N/A,,Overcast,270,2014-01-12 21:53:00
5:53 PM,37.0,23.0,57,29.82,10.0,Variable,5.8,-,N/A,,Overcast,0,2014-01-12 22:53:00
6:53 PM,37.9,23.0,55,29.86,10.0,WNW,6.9,17.3,N/A,,Overcast,300,2014-01-12 23:53:00
7:53 PM,37.9,25.0,60,29.87,10.0,West,10.4,18.4,N/A,,Overcast,280,2014-01-13 00:53:00
8:53 PM,37.9,24.1,57,29.89,10.0,West,3.5,-,N/A,,Overcast,280,2014-01-13 01:53:00
9:53 PM,37.0,23.0,57,29.92,10.0,Calm,Calm,-,N/A,,Overcast,0,2014-01-13 02:53:00
10:53 PM,37.0,23.0,57,29.92,10.0,Variable,3.5,-,N/A,,Overcast,0,2014-01-13 03:53:00
11:53 PM,36.0,24.1,62,29.94,10.0,West,3.5,-,N/A,,Scattered Clouds,270,2014-01-13 04:53:00